User: anonymous   Login
Location: Unspecified
(0.0000°N, 0.0000°E)
Time: 03:34:13
(UTC+00:00)
Language:

Kosmos-2239 - Orbit

View from above orbital plane
View from above orbital plane
View from above satellite
View from above satellite

Ground track
Ground track

The orbit data is extracted from the following two-line orbital elements,

1 22590U 93020A   17112.97094110 +.00000033 +00000-0 +18559-4 0  9993
2 22590 082.9284 102.4732 0021589 261.5138 126.4859 13.75377981207334
Epoch (UTC): 22 April 2017 23:18:09
Eccentricity: 0.0021589
inclination: 82.9284°
perigee height: 964 km
apogee height: 996 km
right ascension of ascending node: 102.4732°
argument of perigee: 261.5138°
revolutions per day: 13.75377981
mean anomaly at epoch: 126.4859°
orbit number at epoch: 20733

The dashed part of the orbit path shows where the satellite is in the earth's shadow,  

DLR